PRIVATE WETTERSTATION BILLIGHEIM-ALLFELD                       ZURCK
Wetterdaten: Mittwoch, 24.02.2016
Datum Zeit Temp. A. Temp. A. min Temp. A. max Feuchte A. Luftdruck Regen Wind Richtung Richtung Sonnenschein ET Solar Taupunkt Windchill Windben Empfang
24.02.2016 00:00 1,4 C 1,4 C 1,4 C 92 % 1019,0 hPa 0,0 l/m 4,8 km/h (1 Bft) W 270 0 min 0,000 mm 0 W/m 0,2 C 1,4 C 14,5 km/h (3 Bft) 97 %
24.02.2016 00:10 1,4 C 1,4 C 1,4 C 92 % 1019,1 hPa 0,0 l/m 3,2 km/h (1 Bft) W-SW 247 0 min 0,000 mm 0 W/m 0,2 C 1,4 C 11,3 km/h (2 Bft) 98 %
24.02.2016 00:20 1,4 C 1,4 C 1,4 C 92 % 1019,2 hPa 0,0 l/m 1,6 km/h (1 Bft) W 270 0 min 0,000 mm 0 W/m 0,2 C 1,4 C 6,4 km/h (2 Bft) 97 %
24.02.2016 00:30 1,4 C 1,4 C 1,4 C 92 % 1019,3 hPa 0,0 l/m 1,6 km/h (1 Bft) W 270 0 min 0,000 mm 0 W/m 0,2 C 1,4 C 6,4 km/h (2 Bft) 97 %
24.02.2016 00:40 1,4 C 1,4 C 1,4 C 92 % 1019,2 hPa 0,0 l/m 3,2 km/h (1 Bft) W 270 0 min 0,000 mm 0 W/m 0,2 C 1,4 C 11,3 km/h (2 Bft) 98 %
24.02.2016 00:50 1,4 C 1,4 C 1,4 C 92 % 1019,3 hPa 0,0 l/m 6,4 km/h (2 Bft) W-SW 247 0 min 0,000 mm 0 W/m 0,2 C 1,4 C 11,3 km/h (2 Bft) 97 %
24.02.2016 01:00 1,4 C 1,4 C 1,5 C 92 % 1019,2 hPa 0,0 l/m 4,8 km/h (1 Bft) W-SW 247 0 min 0,000 mm 0 W/m 0,2 C 1,4 C 14,5 km/h (3 Bft) 98 %
24.02.2016 01:10 1,4 C 1,4 C 1,4 C 92 % 1019,2 hPa 0,0 l/m 6,4 km/h (2 Bft) W 270 0 min 0,000 mm 0 W/m 0,2 C 1,4 C 14,5 km/h (3 Bft) 97 %
24.02.2016 01:20 1,4 C 1,4 C 1,4 C 92 % 1019,2 hPa 0,0 l/m 3,2 km/h (1 Bft) W 270 0 min 0,000 mm 0 W/m 0,2 C 1,4 C 11,3 km/h (2 Bft) 98 %
24.02.2016 01:30 1,4 C 1,4 C 1,4 C 92 % 1019,2 hPa 0,0 l/m 3,2 km/h (1 Bft) W 270 0 min 0,000 mm 0 W/m 0,2 C 1,4 C 9,7 km/h (2 Bft) 98 %
24.02.2016 01:40 1,4 C 1,4 C 1,4 C 92 % 1019,2 hPa 0,0 l/m 3,2 km/h (1 Bft) W 270 0 min 0,000 mm 0 W/m 0,2 C 1,4 C 11,3 km/h (2 Bft) 97 %
24.02.2016 01:50 1,4 C 1,4 C 1,4 C 92 % 1019,1 hPa 0,0 l/m 1,6 km/h (1 Bft) W 270 0 min 0,000 mm 0 W/m 0,2 C 1,4 C 4,8 km/h (1 Bft) 97 %
24.02.2016 02:00 1,4 C 1,4 C 1,4 C 92 % 1019,2 hPa 0,0 l/m 1,6 km/h (1 Bft) W 270 0 min 0,000 mm 0 W/m 0,2 C 1,4 C 8,0 km/h (2 Bft) 97 %
24.02.2016 02:10 1,4 C 1,4 C 1,4 C 92 % 1019,2 hPa 0,0 l/m 1,6 km/h (1 Bft) W-NW 292 0 min 0,000 mm 0 W/m 0,2 C 1,4 C 6,4 km/h (2 Bft) 98 %
24.02.2016 02:20 1,4 C 1,4 C 1,4 C 92 % 1019,3 hPa 0,0 l/m 1,6 km/h (1 Bft) W-NW 292 0 min 0,000 mm 0 W/m 0,2 C 1,4 C 6,4 km/h (2 Bft) 97 %
24.02.2016 02:30 1,4 C 1,4 C 1,4 C 92 % 1019,4 hPa 0,0 l/m 1,6 km/h (1 Bft) W 270 0 min 0,000 mm 0 W/m 0,2 C 1,4 C 6,4 km/h (2 Bft) 97 %
24.02.2016 02:40 1,4 C 1,4 C 1,4 C 92 % 1019,3 hPa 0,0 l/m 1,6 km/h (1 Bft) W 270 0 min 0,000 mm 0 W/m 0,2 C 1,4 C 6,4 km/h (2 Bft) 97 %
24.02.2016 02:50 1,4 C 1,4 C 1,4 C 92 % 1019,5 hPa 0,0 l/m 0,0 km/h (0 Bft) W 270 0 min 0,000 mm 0 W/m 0,2 C 1,4 C 4,8 km/h (1 Bft) 98 %
24.02.2016 03:00 1,4 C 1,4 C 1,4 C 92 % 1019,4 hPa 0,0 l/m 0,0 km/h (0 Bft) W 270 0 min 0,000 mm 0 W/m 0,2 C 1,4 C 4,8 km/h (1 Bft) 98 %
24.02.2016 03:10 1,4 C 1,4 C 1,4 C 92 % 1019,4 hPa 0,0 l/m 0,0 km/h (0 Bft) W 270 0 min 0,000 mm 0 W/m 0,2 C 1,4 C 4,8 km/h (1 Bft) 98 %
24.02.2016 03:20 1,4 C 1,4 C 1,4 C 92 % 1019,4 hPa 0,0 l/m 1,6 km/h (1 Bft) W 270 0 min 0,000 mm 0 W/m 0,2 C 1,4 C 6,4 km/h (2 Bft) 98 %
24.02.2016 03:30 1,4 C 1,4 C 1,4 C 92 % 1019,4 hPa 0,0 l/m 3,2 km/h (1 Bft) W-NW 292 0 min 0,000 mm 0 W/m 0,2 C 1,4 C 8,0 km/h (2 Bft) 97 %
24.02.2016 03:40 1,4 C 1,4 C 1,4 C 92 % 1019,5 hPa 0,0 l/m 1,6 km/h (1 Bft) W-SW 247 0 min 0,000 mm 0 W/m 0,2 C 1,4 C 9,7 km/h (2 Bft) 98 %
24.02.2016 03:50 1,4 C 1,4 C 1,4 C 92 % 1019,5 hPa 0,0 l/m 1,6 km/h (1 Bft) W-SW 247 0 min 0,000 mm 0 W/m 0,2 C 1,4 C 8,0 km/h (2 Bft) 97 %
24.02.2016 04:00 1,4 C 1,4 C 1,4 C 92 % 1019,4 hPa 0,0 l/m 0,0 km/h (0 Bft) W-SW 247 0 min 0,000 mm 0 W/m 0,2 C 1,4 C 4,8 km/h (1 Bft) 89 %
24.02.2016 04:10 1,3 C 1,3 C 1,4 C 92 % 1019,5 hPa 0,0 l/m 1,6 km/h (1 Bft) W-SW 247 0 min 0,000 mm 0 W/m 0,1 C 1,3 C 6,4 km/h (2 Bft) 98 %
24.02.2016 04:20 1,3 C 1,3 C 1,3 C 92 % 1019,5 hPa 0,0 l/m 0,0 km/h (0 Bft) W-SW 247 0 min 0,000 mm 0 W/m 0,1 C 1,3 C 4,8 km/h (1 Bft) 98 %
24.02.2016 04:30 1,2 C 1,2 C 1,3 C 92 % 1019,4 hPa 0,0 l/m 0,0 km/h (0 Bft) W-SW 247 0 min 0,000 mm 0 W/m 0,0 C 1,2 C 1,6 km/h (1 Bft) 98 %
24.02.2016 04:40 1,2 C 1,2 C 1,2 C 92 % 1019,5 hPa 0,0 l/m 0,0 km/h (0 Bft) W-SW 247 0 min 0,000 mm 0 W/m 0,0 C 1,2 C 4,8 km/h (1 Bft) 97 %
24.02.2016 04:50 1,2 C 1,2 C 1,2 C 92 % 1019,4 hPa 0,0 l/m 3,2 km/h (1 Bft) W-SW 247 0 min 0,000 mm 0 W/m 0,0 C 1,2 C 8,0 km/h (2 Bft) 97 %
24.02.2016 05:00 1,2 C 1,2 C 1,2 C 92 % 1019,6 hPa 0,0 l/m 3,2 km/h (1 Bft) SW 225 0 min 0,000 mm 0 W/m 0,0 C 1,2 C 6,4 km/h (2 Bft) 98 %
24.02.2016 05:10 1,2 C 1,2 C 1,2 C 92 % 1019,6 hPa 0,0 l/m 3,2 km/h (1 Bft) SW 225 0 min 0,000 mm 0 W/m 0,0 C 1,2 C 9,7 km/h (2 Bft) 98 %
24.02.2016 05:20 1,2 C 1,2 C 1,2 C 92 % 1019,6 hPa 0,0 l/m 0,0 km/h (0 Bft) SW 225 0 min 0,000 mm 0 W/m 0,0 C 1,2 C 4,8 km/h (1 Bft) 98 %
24.02.2016 05:30 1,2 C 1,1 C 1,2 C 92 % 1019,6 hPa 0,0 l/m 0,0 km/h (0 Bft) W-SW 247 0 min 0,000 mm 0 W/m 0,0 C 1,2 C 6,4 km/h (2 Bft) 98 %
24.02.2016 05:40 1,1 C 1,1 C 1,2 C 92 % 1019,6 hPa 0,0 l/m 0,0 km/h (0 Bft) W-SW 247 0 min 0,000 mm 0 W/m -0,1 C 1,1 C 1,6 km/h (1 Bft) 98 %
24.02.2016 05:50 1,1 C 1,1 C 1,1 C 92 % 1019,6 hPa 0,0 l/m 0,0 km/h (0 Bft) N 0 0 min 0,000 mm 0 W/m -0,1 C 1,1 C 0,0 km/h (0 Bft) 98 %
24.02.2016 06:00 1,1 C 1,1 C 1,1 C 92 % 1019,6 hPa 0,0 l/m 0,0 km/h (0 Bft) W-SW 247 0 min 0,000 mm 0 W/m -0,1 C 1,1 C 3,2 km/h (1 Bft) 98 %
24.02.2016 06:10 1,0 C 1,0 C 1,1 C 92 % 1019,6 hPa 0,0 l/m 0,0 km/h (0 Bft) W-SW 247 0 min 0,000 mm 0 W/m -0,2 C 1,0 C 4,8 km/h (1 Bft) 98 %
24.02.2016 06:20 0,9 C 0,9 C 1,0 C 92 % 1019,5 hPa 0,0 l/m 0,0 km/h (0 Bft) W-SW 247 0 min 0,000 mm 0 W/m -0,2 C 0,9 C 3,2 km/h (1 Bft) 97 %
24.02.2016 06:30 0,8 C 0,8 C 0,9 C 92 % 1019,3 hPa 0,0 l/m 0,0 km/h (0 Bft) W 270 0 min 0,000 mm 0 W/m -0,3 C 0,8 C 6,4 km/h (2 Bft) 98 %
24.02.2016 06:40 0,6 C 0,6 C 0,8 C 92 % 1019,3 hPa 0,0 l/m 0,0 km/h (0 Bft) W 270 0 min 0,000 mm 0 W/m -0,5 C 0,6 C 3,2 km/h (1 Bft) 98 %
24.02.2016 06:50 0,5 C 0,5 C 0,6 C 92 % 1019,2 hPa 0,0 l/m 0,0 km/h (0 Bft) W 270 0 min 0,000 mm 0 W/m -0,6 C 0,5 C 1,6 km/h (1 Bft) 97 %
24.02.2016 07:00 0,5 C 0,4 C 0,5 C 92 % 1019,4 hPa 0,0 l/m 0,0 km/h (0 Bft) N 0 0 min 0,000 mm 0 W/m -0,6 C 0,5 C 0,0 km/h (0 Bft) 98 %
24.02.2016 07:10 0,4 C 0,4 C 0,5 C 92 % 1019,5 hPa 0,0 l/m 0,0 km/h (0 Bft) N 0 0 min 0,000 mm 0 W/m -0,7 C 0,4 C 0,0 km/h (0 Bft) 98 %
24.02.2016 07:20 0,4 C 0,4 C 0,4 C 92 % 1019,5 hPa 0,0 l/m 0,0 km/h (0 Bft) N 0 0 min 0,000 mm 0 W/m -0,7 C 0,4 C 0,0 km/h (0 Bft) 98 %
24.02.2016 07:30 0,4 C 0,4 C 0,4 C 92 % 1019,5 hPa 0,0 l/m 0,0 km/h (0 Bft) N 0 0 min 0,000 mm 7 W/m -0,7 C 0,4 C 0,0 km/h (0 Bft) 97 %
24.02.2016 07:40 0,4 C 0,4 C 0,4 C 92 % 1019,6 hPa 0,0 l/m 0,0 km/h (0 Bft) N 0 0 min 0,000 mm 9 W/m -0,7 C 0,4 C 0,0 km/h (0 Bft) 98 %
24.02.2016 07:50 0,4 C 0,4 C 0,4 C 92 % 1019,8 hPa 0,0 l/m 0,0 km/h (0 Bft) W 270 0 min 0,000 mm 16 W/m -0,7 C 0,4 C 3,2 km/h (1 Bft) 98 %
24.02.2016 08:00 0,4 C 0,4 C 0,4 C 92 % 1019,7 hPa 0,0 l/m 0,0 km/h (0 Bft) W 270 0 min 0,000 mm 26 W/m -0,7 C 0,4 C 1,6 km/h (1 Bft) 96 %
24.02.2016 08:10 0,5 C 0,4 C 0,5 C 92 % 1019,8 hPa 0,0 l/m 0,0 km/h (0 Bft) N 0 0 min 0,000 mm 42 W/m -0,6 C 0,5 C 0,0 km/h (0 Bft) 98 %
24.02.2016 08:20 0,6 C 0,5 C 0,6 C 92 % 1020,0 hPa 0,0 l/m 0,0 km/h (0 Bft) N 0 0 min 0,000 mm 33 W/m -0,5 C 0,6 C 0,0 km/h (0 Bft) 97 %
24.02.2016 08:30 0,5 C 0,5 C 0,6 C 92 % 1020,0 hPa 0,0 l/m 0,0 km/h (0 Bft) N 0 0 min 0,000 mm 25 W/m -0,6 C 0,5 C 0,0 km/h (0 Bft) 89 %
24.02.2016 08:40 0,6 C 0,6 C 0,6 C 92 % 1020,1 hPa 0,0 l/m 1,6 km/h (1 Bft) W 270 0 min 0,000 mm 35 W/m -0,5 C 0,6 C 4,8 km/h (1 Bft) 97 %
24.02.2016 08:50 0,7 C 0,6 C 0,7 C 92 % 1020,2 hPa 0,0 l/m 0,0 km/h (0 Bft) W 270 0 min 0,000 mm 28 W/m -0,4 C 0,7 C 4,8 km/h (1 Bft) 98 %
24.02.2016 09:00 0,7 C 0,7 C 0,7 C 92 % 1020,1 hPa 0,0 l/m 1,6 km/h (1 Bft) W 270 0 min 0,000 mm 60 W/m -0,4 C 0,7 C 6,4 km/h (2 Bft) 98 %
24.02.2016 09:10 0,8 C 0,7 C 0,8 C 92 % 1020,1 hPa 0,0 l/m 1,6 km/h (1 Bft) W 270 0 min 0,000 mm 74 W/m -0,3 C 0,8 C 4,8 km/h (1 Bft) 97 %
24.02.2016 09:20 0,9 C 0,8 C 0,9 C 92 % 1020,1 hPa 0,0 l/m 0,0 km/h (0 Bft) W 270 0 min 0,000 mm 81 W/m -0,2 C 0,9 C 3,2 km/h (1 Bft) 98 %
24.02.2016 09:30 1,0 C 0,9 C 1,0 C 92 % 1020,1 hPa 0,0 l/m 0,0 km/h (0 Bft) N 0 0 min 0,000 mm 98 W/m -0,2 C 1,0 C 0,0 km/h (0 Bft) 97 %
24.02.2016 09:40 1,0 C 1,0 C 1,0 C 92 % 1020,0 hPa 0,0 l/m 0,0 km/h (0 Bft) N 0 0 min 0,000 mm 97 W/m -0,2 C 1,0 C 0,0 km/h (0 Bft) 98 %
24.02.2016 09:50 1,1 C 0,9 C 1,1 C 92 % 1020,0 hPa 0,0 l/m 0,0 km/h (0 Bft) N 0 10 min 0,000 mm 316 W/m -0,1 C 1,1 C 0,0 km/h (0 Bft) 98 %
24.02.2016 10:00 2,1 C 1,1 C 2,1 C 92 % 1020,0 hPa 0,0 l/m 0,0 km/h (0 Bft) W 270 10 min 0,051 mm 357 W/m 0,9 C 2,1 C 6,4 km/h (2 Bft) 98 %
24.02.2016 10:10 2,8 C 2,1 C 2,8 C 92 % 1019,9 hPa 0,0 l/m 1,6 km/h (1 Bft) W 270 10 min 0,000 mm 476 W/m 1,6 C 2,8 C 9,7 km/h (2 Bft) 98 %
24.02.2016 10:20 3,2 C 2,8 C 3,2 C 91 % 1019,9 hPa 0,0 l/m 1,6 km/h (1 Bft) SW 225 10 min 0,000 mm 483 W/m 1,9 C 3,2 C 6,4 km/h (2 Bft) 97 %
24.02.2016 10:30 2,9 C 2,9 C 3,3 C 89 % 1019,9 hPa 0,0 l/m 1,6 km/h (1 Bft) SW 225 10 min 0,000 mm 248 W/m 1,3 C 2,9 C 14,5 km/h (3 Bft) 98 %
24.02.2016 10:40 2,4 C 2,4 C 2,9 C 89 % 1019,9 hPa 0,0 l/m 4,8 km/h (1 Bft) S-SW 202 10 min 0,000 mm 162 W/m 0,8 C 2,4 C 9,7 km/h (2 Bft) 97 %
24.02.2016 10:50 2,2 C 2,2 C 2,4 C 90 % 1019,8 hPa 0,0 l/m 3,2 km/h (1 Bft) S 180 10 min 0,000 mm 241 W/m 0,7 C 2,2 C 8,0 km/h (2 Bft) 98 %
24.02.2016 11:00 2,4 C 2,2 C 2,4 C 90 % 1019,7 hPa 0,0 l/m 3,2 km/h (1 Bft) S-SW 202 10 min 0,102 mm 283 W/m 0,9 C 2,4 C 8,0 km/h (2 Bft) 98 %
24.02.2016 11:10 2,8 C 2,4 C 2,8 C 90 % 1019,7 hPa 0,0 l/m 4,8 km/h (1 Bft) SW 225 10 min 0,000 mm 216 W/m 1,3 C 2,8 C 11,3 km/h (2 Bft) 97 %
24.02.2016 11:20 2,8 C 2,8 C 2,8 C 89 % 1019,6 hPa 0,0 l/m 1,6 km/h (1 Bft) W-SW 247 10 min 0,000 mm 202 W/m 1,2 C 2,8 C 8,0 km/h (2 Bft) 98 %
24.02.2016 11:30 3,0 C 2,7 C 3,0 C 90 % 1019,7 hPa 0,0 l/m 3,2 km/h (1 Bft) W-SW 247 10 min 0,000 mm 471 W/m 1,5 C 3,0 C 11,3 km/h (2 Bft) 97 %
24.02.2016 11:40 3,4 C 3,0 C 3,4 C 88 % 1019,5 hPa 0,0 l/m 4,8 km/h (1 Bft) S-SW 202 10 min 0,000 mm 476 W/m 1,6 C 3,4 C 14,5 km/h (3 Bft) 98 %
24.02.2016 11:50 3,6 C 3,4 C 3,7 C 85 % 1019,4 hPa 0,0 l/m 6,4 km/h (2 Bft) S-SW 202 10 min 0,000 mm 584 W/m 1,3 C 3,6 C 12,9 km/h (3 Bft) 97 %
24.02.2016 12:00 3,4 C 3,4 C 3,6 C 85 % 1019,3 hPa 0,0 l/m 4,8 km/h (1 Bft) S-SW 202 10 min 0,102 mm 223 W/m 1,1 C 3,4 C 14,5 km/h (3 Bft) 98 %
24.02.2016 12:10 3,3 C 3,3 C 3,4 C 85 % 1019,2 hPa 0,0 l/m 1,6 km/h (1 Bft) W-SW 247 10 min 0,000 mm 550 W/m 1,0 C 3,3 C 9,7 km/h (2 Bft) 98 %
24.02.2016 12:20 3,3 C 3,3 C 3,4 C 84 % 1019,0 hPa 0,0 l/m 4,8 km/h (1 Bft) S-SW 202 10 min 0,000 mm 200 W/m 0,9 C 3,3 C 9,7 km/h (2 Bft) 89 %
24.02.2016 12:30 3,5 C 3,2 C 3,5 C 85 % 1018,9 hPa 0,0 l/m 1,6 km/h (1 Bft) SW 225 10 min 0,000 mm 508 W/m 1,2 C 3,5 C 8,0 km/h (2 Bft) 97 %
24.02.2016 12:40 4,1 C 3,5 C 4,1 C 82 % 1018,7 hPa 0,0 l/m 4,8 km/h (1 Bft) S-SW 202 10 min 0,000 mm 520 W/m 1,3 C 4,1 C 11,3 km/h (2 Bft) 97 %
24.02.2016 12:50 4,2 C 4,1 C 4,2 C 81 % 1018,5 hPa 0,0 l/m 3,2 km/h (1 Bft) S-SW 202 10 min 0,000 mm 561 W/m 1,2 C 4,2 C 9,7 km/h (2 Bft) 98 %
24.02.2016 13:00 4,6 C 4,2 C 4,6 C 79 % 1018,3 hPa 0,0 l/m 4,8 km/h (1 Bft) S-SW 202 10 min 0,152 mm 566 W/m 1,3 C 4,6 C 11,3 km/h (2 Bft) 97 %
24.02.2016 13:10 4,3 C 4,3 C 4,6 C 78 % 1018,1 hPa 0,0 l/m 1,6 km/h (1 Bft) SO 135 10 min 0,000 mm 559 W/m 0,8 C 4,3 C 9,7 km/h (2 Bft) 98 %
24.02.2016 13:20 4,8 C 4,3 C 4,8 C 77 % 1017,8 hPa 0,0 l/m 3,2 km/h (1 Bft) W-SW 247 10 min 0,000 mm 555 W/m 1,1 C 4,8 C 9,7 km/h (2 Bft) 98 %
24.02.2016 13:30 5,2 C 4,8 C 5,2 C 76 % 1017,6 hPa 0,0 l/m 3,2 km/h (1 Bft) S-SW 202 10 min 0,000 mm 587 W/m 1,3 C 5,2 C 14,5 km/h (3 Bft) 97 %
24.02.2016 13:40 4,9 C 4,9 C 5,2 C 74 % 1017,4 hPa 0,0 l/m 4,8 km/h (1 Bft) S-SO 157 10 min 0,000 mm 570 W/m 0,7 C 4,9 C 11,3 km/h (2 Bft) 98 %
24.02.2016 13:50 4,7 C 4,7 C 4,9 C 71 % 1017,4 hPa 0,0 l/m 1,6 km/h (1 Bft) S 180 10 min 0,000 mm 582 W/m -0,1 C 4,7 C 9,7 km/h (2 Bft) 97 %
24.02.2016 14:00 4,9 C 4,7 C 4,9 C 72 % 1017,3 hPa 0,0 l/m 1,6 km/h (1 Bft) S-SW 202 10 min 0,203 mm 584 W/m 0,3 C 4,9 C 14,5 km/h (3 Bft) 98 %
24.02.2016 14:10 5,3 C 4,9 C 5,3 C 73 % 1017,1 hPa 0,0 l/m 1,6 km/h (1 Bft) S 180 10 min 0,000 mm 547 W/m 0,9 C 5,3 C 8,0 km/h (2 Bft) 97 %
24.02.2016 14:20 5,5 C 5,3 C 5,5 C 70 % 1016,9 hPa 0,0 l/m 3,2 km/h (1 Bft) S-SW 202 10 min 0,000 mm 529 W/m 0,5 C 5,5 C 14,5 km/h (3 Bft) 98 %
24.02.2016 14:30 5,5 C 5,5 C 5,7 C 68 % 1016,7 hPa 0,0 l/m 3,2 km/h (1 Bft) SW 225 10 min 0,000 mm 531 W/m 0,1 C 5,5 C 14,5 km/h (3 Bft) 98 %
24.02.2016 14:40 5,8 C 5,5 C 5,8 C 70 % 1016,6 hPa 0,0 l/m 6,4 km/h (2 Bft) S-SW 202 10 min 0,000 mm 536 W/m 0,8 C 5,8 C 20,9 km/h (4 Bft) 97 %
24.02.2016 14:50 6,3 C 5,8 C 6,3 C 70 % 1016,5 hPa 0,0 l/m 4,8 km/h (1 Bft) S-SW 202 10 min 0,000 mm 554 W/m 1,2 C 6,3 C 20,9 km/h (4 Bft) 98 %
24.02.2016 15:00 6,1 C 6,0 C 6,3 C 68 % 1016,4 hPa 0,0 l/m 1,6 km/h (1 Bft) S-SW 202 10 min 0,203 mm 476 W/m 0,6 C 6,1 C 11,3 km/h (2 Bft) 97 %
24.02.2016 15:10 6,3 C 6,1 C 6,3 C 68 % 1016,1 hPa 0,0 l/m 1,6 km/h (1 Bft) SW 225 10 min 0,000 mm 448 W/m 0,8 C 6,3 C 11,3 km/h (2 Bft) 98 %
24.02.2016 15:20 6,3 C 6,1 C 6,3 C 67 % 1016,0 hPa 0,0 l/m 1,6 km/h (1 Bft) S-SW 202 10 min 0,000 mm 207 W/m 0,6 C 6,3 C 12,9 km/h (3 Bft) 97 %
24.02.2016 15:30 6,2 C 6,2 C 6,3 C 63 % 1015,9 hPa 0,0 l/m 1,6 km/h (1 Bft) SW 225 10 min 0,000 mm 167 W/m -0,3 C 6,2 C 11,3 km/h (2 Bft) 98 %
24.02.2016 15:40 6,2 C 6,2 C 6,3 C 64 % 1015,8 hPa 0,0 l/m 3,2 km/h (1 Bft) S-SW 202 0 min 0,000 mm 137 W/m -0,1 C 6,2 C 14,5 km/h (3 Bft) 96 %
24.02.2016 15:50 5,8 C 5,8 C 6,2 C 64 % 1015,8 hPa 0,0 l/m 3,2 km/h (1 Bft) S-SW 202 0 min 0,000 mm 95 W/m -0,5 C 5,8 C 14,5 km/h (3 Bft) 88 %
24.02.2016 16:00 5,5 C 5,5 C 5,8 C 62 % 1015,6 hPa 0,0 l/m 1,6 km/h (1 Bft) S-SW 202 0 min 0,076 mm 77 W/m -1,2 C 5,5 C 12,9 km/h (3 Bft) 97 %
24.02.2016 16:10 5,4 C 5,4 C 5,5 C 64 % 1015,5 hPa 0,0 l/m 1,6 km/h (1 Bft) S-SW 202 0 min 0,000 mm 58 W/m -0,9 C 5,4 C 11,3 km/h (2 Bft) 97 %
24.02.2016 16:20 5,3 C 5,3 C 5,4 C 61 % 1015,4 hPa 0,0 l/m 1,6 km/h (1 Bft) S-SW 202 0 min 0,000 mm 56 W/m -1,6 C 5,3 C 11,3 km/h (2 Bft) 99 %
24.02.2016 16:30 5,3 C 5,2 C 5,3 C 63 % 1015,3 hPa 0,0 l/m 0,0 km/h (0 Bft) S-SW 202 0 min 0,000 mm 44 W/m -1,2 C 5,3 C 8,0 km/h (2 Bft) 100 %
24.02.2016 16:40 5,2 C 5,1 C 5,3 C 64 % 1015,2 hPa 0,0 l/m 0,0 km/h (0 Bft) SW 225 0 min 0,000 mm 39 W/m -1,0 C 5,2 C 3,2 km/h (1 Bft) 100 %
24.02.2016 16:50 5,0 C 5,0 C 5,1 C 62 % 1015,1 hPa 0,0 l/m 0,0 km/h (0 Bft) SW 225 0 min 0,000 mm 32 W/m -1,7 C 5,0 C 6,4 km/h (2 Bft) 100 %
24.02.2016 17:00 4,8 C 4,8 C 5,0 C 61 % 1015,0 hPa 0,0 l/m 0,0 km/h (0 Bft) SW 225 0 min 0,025 mm 28 W/m -2,1 C 4,8 C 3,2 km/h (1 Bft) 100 %
24.02.2016 17:10 4,7 C 4,7 C 4,8 C 62 % 1014,8 hPa 0,0 l/m 0,0 km/h (0 Bft) N 0 0 min 0,000 mm 25 W/m -1,9 C 4,7 C 0,0 km/h (0 Bft) 100 %
24.02.2016 17:20 4,4 C 4,4 C 4,7 C 64 % 1014,7 hPa 0,0 l/m 0,0 km/h (0 Bft) N 0 0 min 0,000 mm 23 W/m -1,8 C 4,4 C 0,0 km/h (0 Bft) 100 %
24.02.2016 17:30 4,2 C 4,2 C 4,4 C 66 % 1014,5 hPa 0,0 l/m 0,0 km/h (0 Bft) N 0 0 min 0,000 mm 19 W/m -1,6 C 4,2 C 0,0 km/h (0 Bft) 100 %
24.02.2016 17:40 3,9 C 3,9 C 4,2 C 67 % 1014,6 hPa 0,0 l/m 0,0 km/h (0 Bft) N 0 0 min 0,000 mm 19 W/m -1,7 C 3,9 C 0,0 km/h (0 Bft) 100 %
24.02.2016 17:50 3,7 C 3,7 C 3,9 C 68 % 1014,5 hPa 0,0 l/m 0,0 km/h (0 Bft) N 0 0 min 0,000 mm 12 W/m -1,6 C 3,7 C 0,0 km/h (0 Bft) 100 %
24.02.2016 18:00 3,3 C 3,3 C 3,6 C 67 % 1014,3 hPa 0,0 l/m 0,0 km/h (0 Bft) N 0 0 min 0,000 mm 0 W/m -2,2 C 3,3 C 0,0 km/h (0 Bft) 89 %
24.02.2016 18:10 3,1 C 3,1 C 3,3 C 67 % 1014,3 hPa 0,0 l/m 0,0 km/h (0 Bft) N 0 0 min 0,000 mm 0 W/m -2,4 C 3,1 C 0,0 km/h (0 Bft) 100 %
24.02.2016 18:20 2,9 C 2,9 C 3,1 C 71 % 1014,3 hPa 0,0 l/m 0,0 km/h (0 Bft) N 0 0 min 0,000 mm 0 W/m -1,8 C 2,9 C 0,0 km/h (0 Bft) 100 %
24.02.2016 18:30 2,6 C 2,6 C 2,9 C 72 % 1014,3 hPa 0,0 l/m 0,0 km/h (0 Bft) N 0 0 min 0,000 mm 0 W/m -1,9 C 2,6 C 0,0 km/h (0 Bft) 100 %
24.02.2016 18:40 2,4 C 2,4 C 2,6 C 73 % 1014,3 hPa 0,0 l/m 0,0 km/h (0 Bft) SW 225 0 min 0,000 mm 0 W/m -1,9 C 2,4 C 1,6 km/h (1 Bft) 100 %
24.02.2016 18:50 2,1 C 2,1 C 2,6 C 74 % 1014,3 hPa 0,0 l/m 0,0 km/h (0 Bft) SW 230 0 min 0,000 mm 0 W/m -2,0 C 2,1 C 0,0 km/h (0 Bft) 100 %
24.02.2016 19:00 1,8 C 1,8 C 2,1 C 77 % 1014,3 hPa 0,0 l/m 0,0 km/h (0 Bft) SW 230 0 min 0,000 mm 0 W/m -1,8 C 1,8 C 0,0 km/h (0 Bft) 100 %
24.02.2016 19:12 1,4 C 1,4 C 1,8 C 80 % 1014,2 hPa 0,0 l/m 0,0 km/h (0 Bft) SW 230 0 min 0,000 mm 0 W/m -1,7 C 1,4 C 0,0 km/h (0 Bft) 100 %
24.02.2016 19:20 1,3 C 1,3 C 1,4 C 80 % 1014,2 hPa 0,0 l/m 0,0 km/h (0 Bft) SW 230 0 min 0,000 mm 0 W/m -1,8 C 1,3 C 0,0 km/h (0 Bft) 100 %
24.02.2016 19:30 1,1 C 1,1 C 1,3 C 81 % 1014,3 hPa 0,0 l/m 0,0 km/h (0 Bft) SW 230 0 min 0,000 mm 0 W/m -1,8 C 1,1 C 0,0 km/h (0 Bft) 100 %
24.02.2016 19:40 1,0 C 1,0 C 1,1 C 82 % 1014,2 hPa 0,0 l/m 0,0 km/h (0 Bft) SW 230 0 min 0,000 mm 0 W/m -1,7 C 1,0 C 0,0 km/h (0 Bft) 91 %
24.02.2016 19:50 0,8 C 0,8 C 1,0 C 83 % 1014,1 hPa 0,0 l/m 0,0 km/h (0 Bft) SW 230 0 min 0,000 mm 0 W/m -1,8 C 0,8 C 0,0 km/h (0 Bft) 100 %
24.02.2016 20:00 0,6 C 0,6 C 0,8 C 84 % 1014,1 hPa 0,0 l/m 0,0 km/h (0 Bft) SW 230 0 min 0,000 mm 0 W/m -1,8 C 0,6 C 0,0 km/h (0 Bft) 100 %
24.02.2016 20:10 0,4 C 0,4 C 0,6 C 84 % 1013,9 hPa 0,0 l/m 0,0 km/h (0 Bft) SW 230 0 min 0,000 mm 0 W/m -2,0 C 0,4 C 0,0 km/h (0 Bft) 99 %
24.02.2016 20:20 0,2 C 0,2 C 0,4 C 86 % 1013,9 hPa 0,0 l/m 0,2 km/h (0 Bft) SW 230 0 min 0,000 mm 0 W/m -1,9 C 0,2 C 1,6 km/h (1 Bft) 100 %
24.02.2016 20:30 -0,1 C -0,1 C 0,2 C 86 % 1013,7 hPa 0,0 l/m 0,0 km/h (0 Bft) SW 230 0 min 0,000 mm 0 W/m -2,2 C -0,1 C 0,0 km/h (0 Bft) 100 %
24.02.2016 20:40 -0,3 C -0,3 C -0,1 C 87 % 1013,7 hPa 0,0 l/m 0,0 km/h (0 Bft) SW 230 0 min 0,000 mm 0 W/m -2,2 C -0,3 C 0,0 km/h (0 Bft) 100 %
24.02.2016 20:50 -0,4 C -0,4 C -0,3 C 88 % 1013,5 hPa 0,0 l/m 0,0 km/h (0 Bft) SW 230 0 min 0,000 mm 0 W/m -2,1 C -0,4 C 0,0 km/h (0 Bft) 100 %
24.02.2016 21:00 -0,3 C -0,4 C -0,3 C 89 % 1013,4 hPa 0,0 l/m 0,0 km/h (0 Bft) SW 230 0 min 0,000 mm 0 W/m -1,9 C -0,3 C 1,6 km/h (1 Bft) 91 %
24.02.2016 21:10 -0,4 C -0,4 C -0,3 C 89 % 1013,3 hPa 0,0 l/m 0,0 km/h (0 Bft) N 0 0 min 0,000 mm 0 W/m -2,0 C -0,4 C 0,0 km/h (0 Bft) 100 %
24.02.2016 21:20 -0,4 C -0,4 C -0,4 C 89 % 1013,3 hPa 0,0 l/m 0,0 km/h (0 Bft) SW 225 0 min 0,000 mm 0 W/m -2,0 C -0,4 C 1,6 km/h (1 Bft) 100 %
24.02.2016 21:30 -0,4 C -0,4 C -0,4 C 89 % 1013,3 hPa 0,0 l/m 0,0 km/h (0 Bft) W-SW 247 0 min 0,000 mm 0 W/m -2,0 C -0,4 C 3,2 km/h (1 Bft) 100 %
24.02.2016 21:40 -0,4 C -0,4 C -0,4 C 90 % 1013,3 hPa 0,0 l/m 0,0 km/h (0 Bft) W-SW 247 0 min 0,000 mm 0 W/m -1,8 C -0,4 C 3,2 km/h (1 Bft) 100 %
24.02.2016 21:50 -0,5 C -0,5 C -0,4 C 90 % 1013,3 hPa 0,0 l/m 0,0 km/h (0 Bft) N 0 0 min 0,000 mm 0 W/m -1,9 C -0,5 C 0,0 km/h (0 Bft) 99 %
24.02.2016 22:00 -0,4 C -0,5 C -0,4 C 90 % 1013,1 hPa 0,0 l/m 0,0 km/h (0 Bft) N 0 0 min 0,000 mm 0 W/m -1,8 C -0,4 C 0,0 km/h (0 Bft) 100 %
24.02.2016 22:10 -0,4 C -0,4 C -0,4 C 91 % 1013,0 hPa 0,0 l/m 0,0 km/h (0 Bft) W-SW 247 0 min 0,000 mm 0 W/m -1,7 C -0,4 C 1,6 km/h (1 Bft) 99 %
24.02.2016 22:20 -0,5 C -0,5 C -0,4 C 90 % 1012,8 hPa 0,0 l/m 0,0 km/h (0 Bft) W-SW 247 0 min 0,000 mm 0 W/m -1,9 C -0,5 C 1,6 km/h (1 Bft) 100 %
24.02.2016 22:30 -0,5 C -0,5 C -0,5 C 91 % 1012,8 hPa 0,0 l/m 0,0 km/h (0 Bft) W-NW 292 0 min 0,000 mm 0 W/m -1,8 C -0,5 C 1,6 km/h (1 Bft) 98 %
24.02.2016 22:40 -0,5 C -0,5 C -0,5 C 91 % 1012,7 hPa 0,0 l/m 0,0 km/h (0 Bft) N 0 0 min 0,000 mm 0 W/m -1,8 C -0,5 C 0,0 km/h (0 Bft) 98 %
24.02.2016 22:50 -0,5 C -0,5 C -0,5 C 91 % 1012,6 hPa 0,0 l/m 0,0 km/h (0 Bft) N 0 0 min 0,000 mm 0 W/m -1,8 C -0,5 C 0,0 km/h (0 Bft) 97 %
24.02.2016 23:00 -0,4 C -0,5 C -0,4 C 91 % 1012,4 hPa 0,0 l/m 0,0 km/h (0 Bft) N 0 0 min 0,000 mm 0 W/m -1,7 C -0,4 C 0,0 km/h (0 Bft) 97 %
24.02.2016 23:10 -0,4 C -0,4 C -0,4 C 91 % 1012,5 hPa 0,0 l/m 1,6 km/h (1 Bft) W-NW 292 0 min 0,000 mm 0 W/m -1,7 C -0,4 C 4,8 km/h (1 Bft) 97 %
24.02.2016 23:20 -0,4 C -0,4 C -0,4 C 91 % 1012,3 hPa 0,0 l/m 0,0 km/h (0 Bft) NW 315 0 min 0,000 mm 0 W/m -1,7 C -0,4 C 4,8 km/h (1 Bft) 87 %
24.02.2016 23:30 -0,4 C -0,4 C -0,4 C 91 % 1012,2 hPa 0,0 l/m 0,0 km/h (0 Bft) NW 315 0 min 0,000 mm 0 W/m -1,7 C -0,4 C 1,6 km/h (1 Bft) 95 %
24.02.2016 23:40 -0,2 C -0,4 C -0,2 C 91 % 1012,3 hPa 0,0 l/m 0,0 km/h (0 Bft) NW 315 0 min 0,000 mm 0 W/m -1,5 C -0,2 C 3,2 km/h (1 Bft) 97 %
24.02.2016 23:50 -0,2 C -0,2 C -0,2 C 91 % 1012,3 hPa 0,0 l/m 0,0 km/h (0 Bft) N 0 0 min 0,000 mm 0 W/m -1,5 C -0,2 C 0,0 km/h (0 Bft) 98 %
_ Min-Zeit 21:50 21:50 22:30 16:20 23:30 - 02:50 - - - - - 18:10 21:50 05:50 23:20
Minimum _ -0,5 C -0,5 C -0,5 C 61 % 1012,2 hPa - 0,0 km/h (0 Bft) - - - - - -2,4 C -0,5 C 0,0 km/h (0 Bft) 87 %
_ Max-Zeit 14:50 15:30 14:50 00:00 08:50 00:00 00:50 - - 09:50 14:00 13:30 10:20 14:50 14:40 16:30
Maximum _ 6,3 C 6,2 C 6,3 C 92 % 1020,2 hPa 0,0 l/m 6,4 km/h
W-SW (2 Bft)
- - 10 min 0,203 mm 587 W/m 1,9 C 6,3 C 20,9 km/h
S-SW (4 Bft)
100 %
Durchschnitt _ 2,0 C 2,0 C 2,1 C 85 % 1017,3 hPa #0,0 l/m 1,3 km/h (1 Bft) S-SW - #5:50 h #0,914 mm 260 W/m -0,4 C 2,0 C 5,7 km/h (1 Bft) 98 %
PRIVATE WETTERSTATION BILLIGHEIM-ALLFELD - www.neckar-odenwald-wetter.de - Holger Sonntag